{"data":{"norad_id":60056,"intl_designator":"2024-112U","name":"STARLINK-31825","alt_names":[],"object_type":"PAYLOAD","status":"ACTIVE","operator":null,"country":"US","launch_date":"2024-06-08","launch_site_code":"AFWTR","launch_vehicle":null,"mission":null,"orbit_class":"UNKNOWN","rcs_meters":null,"size_class":null,"mass_kg":null,"dimensions":null,"purposes":["comms"],"wikipedia_slug":null,"has_3d_model":false,"image_url":null,"decayed_at":null,"tle_current":{"epoch":"2026-05-24T23:25:11.165952Z","epoch_age_seconds":76889,"freshness":"FRESH","line1":"1 60056U 24112U   26144.97582368  .00158169  00000+0  50548-2 0  9995","line2":"2 60056  53.1592  83.8481 0006644 167.7465 192.3699 15.31346421110272","mean_motion":15.31346421,"eccentricity":0.0006644,"inclination_deg":53.1592,"raan_deg":83.8481,"arg_perigee_deg":167.7465,"mean_anomaly_deg":192.3699,"bstar":0.0050548,"rev_number":11027,"period_min":94.034895060495,"perigee_km":467.24310433451,"apogee_km":476.34529291124,"semimajor_km":6849.9311986229,"source":"CELESTRAK","updated_at":"2026-05-25T13:38:19.155891Z"}}}